Weather History for Point Lay, AK

Change the Weather History Date:

Thursday, October 3, 2013

  Actual Average Record
Temperature  
Mean Temperature 20 °F -  
Max Temperature 24 °F 30 °F 39 °F (2002)
Min Temperature 17 °F 24 °F 17 °F (2011)
Degree Days  
Heating Degree Days 44    
Moisture  
Dew Point 19 °F    
Average Humidity 93    
Maximum Humidity 100    
Minimum Humidity 85    
Precipitation  
Precipitation 0.00 in - - ()
Sea Level Pressure  
Sea Level Pressure 30.02 in    
Wind  
Wind Speed 7 mph (East)    
Max Wind Speed 12 mph    
Max Gust Speed -    
Visibility 6 miles    
Events Fog    
Averages and records for this station are not official NWS values.
T = Trace of Precipitation, MM = Missing Value Source: NWS Daily Summary

Daily Weather History Graph

Daily Weather History Graph

Search for Another Location

Airport:

Trip Planner

Search our weather history database for the weather conditions in past years. The results will help you decide how hot, cold, wet, or windy it might be!

Date:

Astronomy

Oct. 03, 2013 Rise Set
Actual Time 9:17 AM AKDT 8:02 PM AKDT
Civil Twilight 8:17 AM AKDT 9:02 PM AKDT
Nautical Twilight 7:05 AM AKDT 10:13 PM AKDT
Astronomical Twilight 5:44 AM AKDT 11:33 PM AKDT
Moon 7:43 AM AKDT (10/3) 7:22 PM AKDT (10/3)
Length of Visible Light 12h 45m
Length of Day
10h 45m
Waning Crescent, 2% of the Moon is Illuminated
Oct 3
Waning Crescent
Oct 4
New
Oct 11
First Quarter
Oct 18
Full
Oct 26
Last Quarter

Hourly Weather History & Observations

Time (AKDT) Temp. Windchill Dew Point Humidity Pressure Visibility Wind Dir Wind Speed Gust Speed Precip Events Conditions
12:56 AM 23.0 °F 14.7 °F 19.0 °F 85% 30.06 in 10.0 mi SSE 6.9 mph - N/A   Overcast
1:56 AM 24.1 °F 15.2 °F 20.1 °F 85% 30.06 in 10.0 mi SSE 8.1 mph - N/A   Overcast
2:56 AM 23.0 °F 13.9 °F 19.0 °F 85% 30.06 in 10.0 mi SE 8.1 mph - N/A   Overcast
3:56 AM 23.0 °F 13.9 °F 20.1 °F 89% 30.06 in 10.0 mi SE 8.1 mph - N/A   Overcast
4:56 AM 22.1 °F 12.8 °F 20.1 °F 92% 30.05 in 10.0 mi SSE 8.1 mph - N/A   Mostly Cloudy
5:34 AM 21.2 °F 10.1 °F 19.4 °F 93% 30.04 in 10.0 mi SSE 10.4 mph - N/A   Scattered Clouds
5:56 AM 21.0 °F 9.9 °F 19.0 °F 92% 30.05 in 10.0 mi SSE 10.4 mph - N/A   Mostly Cloudy
6:14 AM 21.2 °F 10.9 °F 19.4 °F 93% 30.03 in 10.0 mi SE 9.2 mph - N/A   Overcast
6:56 AM 21.0 °F 10.6 °F 19.0 °F 92% 30.04 in 9.0 mi SE 9.2 mph - N/A   Overcast
7:56 AM 20.1 °F 11.3 °F 18.1 °F 92% 30.04 in 5.0 mi SE 6.9 mph - N/A   Overcast
8:56 AM 19.0 °F 12.3 °F 18.1 °F 96% 30.04 in 10.0 mi ESE 4.6 mph - N/A   Overcast
9:10 AM 19.4 °F 11.5 °F 17.6 °F 93% 30.02 in 5.0 mi ESE 5.8 mph - N/A   Overcast
9:56 AM 20.1 °F 12.3 °F 18.1 °F 92% 30.04 in 2.0 mi SE 5.8 mph - N/A   Overcast
10:10 AM 19.4 °F 12.8 °F 17.6 °F 93% 30.03 in 4.0 mi ESE 4.6 mph - N/A   Overcast
10:56 AM 21.0 °F - 20.1 °F 96% 30.04 in 10.0 mi Calm Calm - N/A   Overcast
11:56 AM 20.1 °F 11.3 °F 18.1 °F 92% 30.04 in 1.8 mi East 6.9 mph - N/A   Overcast
12:07 PM 19.4 °F 11.5 °F 17.6 °F 93% 30.02 in 2.5 mi NE 5.8 mph - N/A   Overcast
12:35 PM 17.6 °F 9.3 °F 15.8 °F 93% 30.02 in 10.0 mi ENE 5.8 mph - N/A   Overcast
12:56 PM 18.1 °F 8.9 °F 16.2 °F 92% 30.03 in 10.0 mi NE 6.9 mph - N/A   Scattered Clouds
1:56 PM 18.1 °F 7.9 °F 16.2 °F 92% 30.04 in 10.0 mi NE 8.1 mph - N/A   Clear
2:56 PM 20.1 °F 10.3 °F 17.1 °F 88% 30.03 in 10.0 mi NE 8.1 mph - N/A   Clear
3:56 PM 21.0 °F 9.3 °F 17.1 °F 85% 30.02 in 10.0 mi NE 11.5 mph - N/A   Clear
4:56 PM 21.0 °F 11.4 °F 18.1 °F 89% 30.01 in 10.0 mi ENE 8.1 mph - N/A   Clear
5:41 PM 21.2 °F 10.9 °F 17.6 °F 86% 30.00 in 10.0 mi NE 9.2 mph - N/A   Mostly Cloudy
5:56 PM 20.1 °F 8.8 °F 18.1 °F 92% 30.01 in 10.0 mi NE 10.4 mph - N/A   Mostly Cloudy
6:04 PM 19.4 °F 8.6 °F 17.6 °F 93% 30.00 in 10.0 mi NE 9.2 mph - N/A   Scattered Clouds
6:22 PM 19.4 °F 9.5 °F 17.6 °F 93% 30.00 in 10.0 mi NE 8.1 mph - N/A   Mostly Cloudy
6:56 PM 20.1 °F 12.3 °F 18.1 °F 92% 30.01 in 10.0 mi NE 5.8 mph - N/A   Mostly Cloudy
7:02 PM 19.4 °F 10.4 °F 17.6 °F 93% 30.00 in 10.0 mi NE 6.9 mph - N/A   Scattered Clouds
7:11 PM 19.4 °F 12.8 °F 17.6 °F 93% 30.00 in 6.0 mi ENE 4.6 mph - N/A   Mostly Cloudy
7:13 PM 19.4 °F 11.5 °F 19.4 °F 100% 30.00 in 2.0 mi NE 5.8 mph - N/A   Mostly Cloudy
7:15 PM 19.4 °F 12.8 °F 19.4 °F 100% 30.00 in 1.0 mi NE 4.6 mph - N/A   Mostly Cloudy
7:19 PM 19.4 °F 14.3 °F 19.4 °F 100% 30.00 in 0.5 mi NE 3.5 mph - N/A Fog Light Freezing Fog
7:31 PM 21.2 °F 14.9 °F 19.4 °F 93% 30.00 in 0.8 mi NE 4.6 mph - N/A   Overcast
8:22 PM 21.2 °F 13.6 °F 21.2 °F 100% 29.99 in 1.0 mi NNE 5.8 mph - N/A   Overcast
8:36 PM 21.2 °F 14.9 °F 19.4 °F 93% 29.99 in 0.8 mi NNE 4.6 mph - N/A   Overcast
8:56 PM 22.1 °F - 21.0 °F 96% 30.00 in 1.0 mi Calm Calm - N/A   Overcast
9:01 PM 21.2 °F - 21.2 °F 100% 29.99 in 1.5 mi Calm Calm - N/A   Overcast
9:06 PM 21.2 °F 16.4 °F 21.2 °F 100% 29.98 in 3.0 mi NE 3.5 mph - N/A   Mostly Cloudy
9:16 PM 21.2 °F 14.9 °F 19.4 °F 93% 29.98 in 9.0 mi ENE 4.6 mph - N/A   Mostly Cloudy
9:48 PM 21.2 °F 14.9 °F 21.2 °F 100% 29.98 in 1.8 mi SE 4.6 mph - N/A   Overcast
9:56 PM 21.2 °F 14.9 °F 21.2 °F 100% 29.98 in 0.8 mi ESE 4.6 mph - N/A   Overcast
10:35 PM 21.2 °F - 21.2 °F 100% 29.98 in 1.0 mi Calm Calm - N/A   Overcast
10:56 PM 22.1 °F 17.4 °F 20.1 °F 92% 30.00 in 0.5 mi North 3.5 mph - N/A Fog Light Freezing Fog
11:13 PM 21.2 °F - 19.4 °F 93% 29.98 in 0.2 mi Calm Calm - N/A Fog Light Freezing Fog
11:38 PM 19.4 °F - 19.4 °F 100% 29.98 in 0.5 mi Calm Calm - N/A Fog Light Freezing Fog
11:56 PM 20.1 °F - 18.1 °F 92% 29.99 in 0.5 mi Calm Calm - N/A Fog Light Freezing Fog